MPEC 2022-S10 : 2022 SC
The following Minor Planet Electronic Circular may be linked-to from your own Web pages, but must not otherwise be redistributed electronically.A form allowing access to any MPEC is at the bottom of this page.


M.P.E.C. 2022-S10 Issued 2022 September 17, 05:49 UT The Minor Planet Electronic Circulars contain information on unusual minor planets and routine data on comets. They are published on behalf of Division F of the International Astronomical Union by the Minor Planet Center, Smithsonian Astrophysical Observatory, Cambridge, MA 02138, U.S.A. Prepared using the Tamkin Foundation Computer Network MPC@CFA.HARVARD.EDU URL https://www.minorplanetcenter.net/ ISSN 1523-6714 2022 SC Observations: K22S00C*KC2022 09 16.09562 21 42 10.81 -11 14 02.1 18.6 GVES010W94 K22S00C KC2022 09 16.10137 21 42 14.92 -11 11 48.3 18.7 GVES010W94 K22S00C KC2022 09 16.10713 21 42 19.00 -11 09 34.8 18.4 GVES010W94 K22S00C KC2022 09 16.17888 21 43 09.67 -10 41 59.3 18.6 GVES010W95 K22S00C KC2022 09 16.18410 21 43 13.35 -10 39 58.8 19.1 GVES010W95 K22S00C KC2022 09 16.18931 21 43 17.02 -10 37 59.1 18.7 GVES010W95 K22S00C mC2022 09 16.19562321 43 30.461-10 38 42.43 19.09GVES010I52 K22S00C mC2022 09 16.19579621 43 30.558-10 38 38.69 19.01GVES010I52 K22S00C mC2022 09 16.19598021 43 30.695-10 38 34.33 19.20GVES010I52 K22S00C mC2022 09 16.19615321 43 30.853-10 38 30.44 18.59GVES010I52 K22S00C mC2022 09 16.29269421 44 38.058-10 01 59.59 18.61GVES010I52 K22S00C mC2022 09 16.29286821 44 38.188-10 01 55.49 19.09GVES010I52 K22S00C mC2022 09 16.29304221 44 38.292-10 01 51.02 19.54GVES010I52 K22S00C mC2022 09 16.29321521 44 38.404-10 01 47.78 19.16GVES010I52 K22S00C KC2022 09 16.84885621 51 27.50 -06 43 19.2 19.0 GXES010958 K22S00C KC2022 09 16.85134621 51 28.78 -06 42 30.4 18.5 GXES010I93 K22S00C KC2022 09 16.85315821 51 30.14 -06 41 51.6 18.9 GXES010958 K22S00C KC2022 09 16.85591821 51 31.65 -06 40 57.3 18.7 GXES010I93 K22S00C KC2022 09 16.85745821 51 32.82 -06 40 23.8 20.0 GXES010958 K22S00C KC2022 09 16.86041221 51 34.46 -06 39 25.6 18.6 GXES010I93 K22S00C KC2022 09 16.86166 21 51 33.53 -06 38 58.5 19.2 GVES010K83 K22S00C KC2022 09 16.87338 21 51 40.82 -06 34 59.9 18.9 GVES010K83 K22S00C KC2022 09 16.89830721 51 57.996-06 26 48.41 19.3 GVES010J95 K22S00C KC2022 09 16.90110221 51 59.736-06 25 52.07 19.4 GVES010J95 K22S00C KC2022 09 16.90378521 52 01.433-06 24 57.06 19.4 GVES010J95 K22S00C KC2022 09 16.90647821 52 03.091-06 24 02.70 19.0 GVES010J95 K22S00C KC2022 09 16.91645021 52 09.095-06 20 44.39 19.1 GVES010Z99 K22S00C KC2022 09 16.91839221 52 10.291-06 20 05.19 19.0 GVES010Z99 K22S00C KC2022 09 16.92046921 52 11.580-06 19 23.29 19.0 GVES010Z99 K22S00C KC2022 09 17.06510921 53 53.24 -05 30 42.8 19.1 VuES010H21 K22S00C KC2022 09 17.06703821 53 54.40 -05 30 04.8 19.0 VuES010H21 K22S00C KC2022 09 17.06896821 53 55.56 -05 29 26.8 19.0 VuES010H21 K22S00C KC2022 09 17.07089521 53 56.72 -05 28 49.3 19.2 VuES010H21 K22S00C KC2022 09 17.11349821 54 25.16 -05 14 42.3 19.0 GXES010858 K22S00C KC2022 09 17.12149121 54 29.94 -05 12 06.5 19.1 GXES010858 K22S00C C2022 09 17.17747821 55 03.508-04 53 53.66 18.95GVES010G96 K22S00C C2022 09 17.18356821 55 07.021-04 51 55.76 19.20GVES010G96 K22S00C C2022 09 17.18965421 55 10.510-04 49 58.40 19.26GVES010G96 K22S00C C2022 09 17.19574021 55 14.020-04 48 01.58 19.03GVES010G96 Observer details: 858 Tebbutt Observatory, Edgewood. Observer F. B. Zoltowski. 0.16-m f/7 0.16-m Refractor + CCD. 958 Observatoire de Dax. Observers P. Dupouy, J. B. de Vanssay. Measurer P. Dupouy. 0.43-m f/2.7 Reflector + CCD. G96 Mt. Lemmon Survey. Observer K. W. Wierzchos. Measurers E. J. Christensen, D. Fay, J. B. Fazekas, D. C. Fuls, A. R. Gibbs, A. D. Grauer, H. Groeller, J. K. Hogan, R. A. Kowalski, S. M. Larson, G. J. Leonard, D. Rankin, R. L. Seaman, A. Serrano, F. C. Shelly, K. W. Wierzchos. 1.5-m reflector + 10K CCD. H21 Astronomical Research Observatory, Westfield. Observer R. Holmes. Measurers T. Linder, R. Holmes, L. Horn. 0.76-m f/3.0 astrograph + CCD. I52 Steward Observatory, Mt. Lemmon Station. Observer A. Serrano. Measurers E. J. Christensen, D. Fay, J. B. Fazekas, D. C. Fuls, A. R. Gibbs, A. D. Grauer, H. Groeller, J. K. Hogan, R. A. Kowalski, S. M. Larson, G. J. Leonard, D. Rankin, R. L. Seaman, A. Serrano, F. C. Shelly, K. W. Wierzchos. 1.0-m prime focus + CCD. I93 St Pardon de Conques. Observer F. Losse. 0.40-m f/3.7 reflector + CCD. J95 Great Shefford. Observer P. Birtwhistle. 0.41-m f/6.3 Schmidt-Cassegrain + CCD. K83 Beppe Forti Astronomical Observatory, Montelupo. Observers M. Tombelli, A. Boattini, A. Mazzanti, M. Lombardo, M. Iozzi, T. Bitossi, G. Interrante, A. Squilloni, B. Venticinque. Measurers M. Tombelli, F. Bernardi. 0.40-m f/8 Ritchey-Chretien + CCD. W94 MAP, San Pedro de Atacama. Observers A. Maury, G. Attard. Measurers A. Maury, G. Attard, D. Parrott. 0.28-m f/2.2 Schmidt astrograph + CCD. W95 Observatorio Panameno, San Pedro de Atacama. Observers A. Maury, G. Attard, J. Fabrega. Measurers A. Maury, G. Attard, D. Parrott. 0.40-m f/3.8 reflector + CCD. Z99 Clixby Observatory, Cleethorpes. Observer A. Mickleburgh. 0.356-m f/8 Schmidt-Cassegrain + CCD. Orbital elements: 2022 SC Earth MOID = 0.0237 AU Epoch 2022 Aug. 9.0 TT = JDT 2459800.5 Veres M 358.95756 (2000.0) P Q n 0.45984392 Peri. 318.27526 +0.63929158 +0.76837544 a 1.6623753 Node 351.31375 -0.64219252 +0.51196480 e 0.4209121 Incl. 11.49286 -0.42295987 +0.38404586 P 2.14 H 24.74 G 0.15 U 8 Residuals in seconds of arc 220916 W94 0.3- 0.1+ 220916 I52 0.2- 0.5- 220916 Z99 0.3+ 0.1- 220916 W94 0.1+ 0.6+ 220916 958 1.3+ 0.2+ 220916 Z99 0.0 0.2- 220916 W94 0.1+ 0.5+ 220916 I93 0.1- 0.2+ 220916 Z99 0.0 0.3- 220916 W95 0.4+ 0.7- 220916 958 0.4+ 0.0 220917 H21 0.1- 0.2+ 220916 W95 0.3+ 0.2- 220916 I93 0.1- 0.1- 220917 H21 0.2- 0.3+ 220916 W95 0.1+ 0.3- 220916 958 0.2+ 0.0 220917 H21 0.2- 0.3+ 220916 I52 0.2- 0.1- 220916 I93 0.2- 0.1- 220917 H21 0.2- 0.1- 220916 I52 0.6- 0.3- 220916 K83 0.0 0.7+ 220917 858 0.3- 0.3- 220916 I52 0.5- 0.2- 220916 K83 0.3+ 0.2+ 220917 858 0.2+ 0.3- 220916 I52 0.1+ 0.2- 220916 J95 0.1+ 0.2- 220917 G96 0.2- 0.2- 220916 I52 0.0 0.6- 220916 J95 0.0 0.6- 220917 G96 0.1- 0.2+ 220916 I52 0.2+ 0.4- 220916 J95 0.3+ 0.0 220917 G96 0.2- 0.2+ 220916 I52 0.1- 0.2+ 220916 J95 0.0 0.2- 220917 G96 0.2+ 0.1- Ephemeris: 2022 SC a,e,i = 1.66, 0.42, 11 q = 0.9627 Date TT R. A. (2000) Decl. Delta r Elong. Phase V 2022 08 18 12 11 55.6 -47 26 11 0.1600 0.9657 68.7 102.5 24.4 ... 2022 09 02 13 38 58.3 -59 03 48 0.07429 0.9935 75.8 100.1 22.7 ... 2022 09 10 18 47 18.5 -57 21 40 0.03858 1.0190 107.0 70.9 20.2 ... 2022 09 16 21 40 52.7 -11 52 19 0.04199 1.0423 150.7 28.2 19.2 2022 09 17 21 53 03.9 -05 50 17 0.04577 1.0465 153.8 25.1 19.3 2022 09 18 22 03 07.4 -00 46 09 0.05009 1.0508 155.6 23.3 19.4 ... 2022 09 24 22 38 59.0 +16 18 11 0.08250 1.0781 153.9 24.1 20.6 ... 2022 10 02 23 00 59.7 +24 13 34 0.1331 1.1182 149.9 26.7 21.8 ... 2022 10 17 23 23 40.2 +28 03 25 0.2397 1.2019 145.5 28.0 23.3 M. P. C. Staff (C) Copyright 2022 MPC M.P.E.C. 2022-S10


Enter an MPEC number in one of the following forms:
- 1997-B01 (the full form)
- J97B01 (the packed version of the full form)
- B01 (the abbreviated form)